Duluth, MN

2:04 AM CDT on June 23, 2017 (GMT -0500)
Duluth International

Weather History for KDLH - July, 2013

Change the Weather History Date:

Sunday, July 7, 2013

  Actual Average Record
Temperature  
Mean Temperature 61 °F 65 °F  
Max Temperature 69 °F 76 °F 100 °F (1936)
Min Temperature 53 °F 55 °F 38 °F (1972)
Degree Days  
Heating Degree Days 4 2  
Month to date heating degree days 8 20  
Since 1 June heating degree days 154 199  
Since 1 July heating degree days 8 20  
Cooling Degree Days 0 3  
Month to date cooling degree days 28 18  
Year to date cooling degree days 82 52  
Since 1 June cooling degree days 81 48  
Growing Degree Days 10 (Base 50)    
Moisture  
Dew Point 60 °F    
Average Humidity 86    
Maximum Humidity 93    
Minimum Humidity 78    
Precipitation  
Precipitation T in 0.14 in 2.17 in (1978)
Month to date precipitation 0.34 1.03  
Year to date precipitation 18.22 14.18  
Snow  
Snow 0.00 in 0.00 in 0.00 in (2002)
Month to date snowfall 0.0 0.0  
Since 1 June snowfall 0.0 0.0  
Since 1 July snowfall 0.0 0.0  
Snow Depth 0.00 in    
Sea Level Pressure  
Sea Level Pressure 29.90 in    
Wind  
Wind Speed 9 mph (East)    
Max Wind Speed 17 mph    
Max Gust Speed 23 mph    
Visibility 2 miles    
Events Fog , Rain , Thunderstorm    
T = Trace of Precipitation, MM = Missing Value Source: NWS Daily Summary

Daily Weather History Graph

Daily Weather History Graph

Search for Another Location

Airport or City:

Trip Planner

Search our weather history database for the weather conditions in past years. The results will help you decide how hot, cold, wet, or windy it might be!

Date:

Astronomy

Jul. 07, 2013 Rise Set
Actual Time 5:22 AM CDT 9:04 PM CDT
Civil Twilight 4:43 AM CDT 9:43 PM CDT
Nautical Twilight 3:51 AM CDT 10:35 PM CDT
Astronomical Twilight 2:38 AM CDT 11:47 PM CDT
Moon 5:03 AM CDT (7/7) 8:23 PM CDT (7/7)
Length of Visible Light 16h 59m
Length of Day
15h 41m
Waning Crescent, 0% of the Moon is Illuminated
Jul 7
Waning Crescent
Jul 8
New
Jul 15
First Quarter
Jul 22
Full
Jul 29
Last Quarter

Hourly Weather History & Observations

Time (CDT) Temp. Dew Point Humidity Pressure Visibility Wind Dir Wind Speed Gust Speed Precip Events Conditions
12:55 AM 66.0 °F 63.0 °F 90% 29.86 in 0.2 mi East 10.4 mph - N/A Fog Fog
1:11 AM 66.2 °F 62.6 °F 88% 29.86 in 0.5 mi East 12.7 mph - N/A Fog Fog
1:18 AM 66.2 °F 62.6 °F 88% 29.85 in 0.5 mi East 12.7 mph - N/A Fog , Thunderstorm Unknown
1:30 AM 66.2 °F 64.4 °F 94% 29.85 in 0.2 mi East 12.7 mph - N/A Fog , Thunderstorm Unknown
1:55 AM 66.9 °F 64.0 °F 90% 29.85 in 0.2 mi ENE 5.8 mph - 0.00 in Fog , Rain , Thunderstorm Light Thunderstorms and Rain
2:11 AM 66.2 °F 62.6 °F 88% 29.87 in 1.0 mi NNE 6.9 mph - 0.00 in Thunderstorm Overcast
2:26 AM 66.2 °F 62.6 °F 88% 29.86 in 3.0 mi East 8.1 mph - 0.00 in Thunderstorm Overcast
2:55 AM 66.9 °F 64.0 °F 90% 29.86 in 4.0 mi NE 5.8 mph - 0.00 in Thunderstorm Overcast
3:50 AM 68.0 °F 64.4 °F 88% 29.86 in 4.0 mi ENE 5.8 mph - N/A   Overcast
3:55 AM 68.0 °F 64.9 °F 90% 29.85 in 4.0 mi ENE 4.6 mph - N/A   Overcast
4:36 AM 68.0 °F 64.4 °F 88% 29.86 in 0.8 mi East 6.9 mph - N/A   Mist
4:55 AM 69.1 °F 64.9 °F 87% 29.85 in 0.5 mi ESE 8.1 mph - N/A Fog Fog
5:24 AM 68.0 °F 64.4 °F 88% 29.87 in 0.1 mi SE 8.1 mph - N/A Fog Fog
5:32 AM 66.2 °F 62.6 °F 88% 29.87 in 0.1 mi ESE 6.9 mph - N/A Fog Fog
5:55 AM 66.9 °F 64.0 °F 90% 29.86 in 0.1 mi ESE 10.4 mph - N/A Fog Fog
6:55 AM 66.0 °F 63.0 °F 90% 29.86 in 0.1 mi ESE 8.1 mph - N/A Fog Fog
7:55 AM 66.0 °F 63.0 °F 90% 29.87 in 0.1 mi ESE 8.1 mph - N/A Fog Fog
8:55 AM 64.9 °F 62.1 °F 90% 29.88 in 0.1 mi East 6.9 mph - N/A Fog Fog
9:37 AM 66.2 °F 62.6 °F 88% 29.88 in 0.1 mi ESE 8.1 mph - N/A Fog Fog
9:52 AM 66.2 °F 64.4 °F 94% 29.88 in 0.1 mi East 8.1 mph - N/A Fog Fog
9:55 AM 66.9 °F 64.0 °F 90% 29.87 in 0.1 mi ESE 8.1 mph - N/A Fog Fog
10:38 AM 66.2 °F 62.6 °F 88% 29.89 in 0.2 mi ESE 11.5 mph - N/A Fog Fog
10:55 AM 64.0 °F 61.0 °F 90% 29.89 in 0.2 mi SE 8.1 mph - N/A Fog Fog
11:19 AM 64.4 °F 62.6 °F 94% 29.90 in 0.5 mi ESE 5.8 mph - N/A Fog Fog
11:55 AM 64.0 °F 61.0 °F 90% 29.90 in 0.5 mi ESE 5.8 mph - N/A Fog Fog
12:55 PM 63.0 °F 57.9 °F 84% 29.91 in 0.8 mi ESE 9.2 mph - N/A   Haze
1:16 PM 64.4 °F 59.0 °F 83% 29.92 in 1.5 mi ESE 8.1 mph - N/A   Haze
1:45 PM 66.2 °F 60.8 °F 83% 29.92 in 2.0 mi East 10.4 mph - N/A   Haze
1:55 PM 66.0 °F 59.0 °F 78% 29.92 in 4.0 mi SE 8.1 mph - N/A   Haze
2:55 PM 66.9 °F 61.0 °F 81% 29.92 in 10.0 mi East 11.5 mph - N/A   Overcast
3:29 PM 66.2 °F 60.8 °F 83% 29.93 in 1.0 mi East 11.5 mph - N/A   Haze
3:48 PM 66.2 °F 60.8 °F 83% 29.92 in 2.0 mi East 11.5 mph - N/A   Haze
3:55 PM 64.9 °F 60.1 °F 84% 29.92 in 2.0 mi East 11.5 mph - N/A   Haze
4:55 PM 66.0 °F 60.1 °F 81% 29.93 in 3.0 mi East 9.2 mph - N/A   Haze
5:09 PM 66.2 °F 60.8 °F 83% 29.93 in 3.0 mi ENE 10.4 mph - N/A   Haze
5:55 PM 64.9 °F 59.0 °F 81% 29.94 in 5.0 mi East 11.5 mph - N/A   Haze
6:09 PM 64.4 °F 59.0 °F 83% 29.93 in 7.0 mi NE 11.5 mph - N/A   Overcast
6:55 PM 64.0 °F 59.0 °F 84% 29.94 in 10.0 mi ENE 10.4 mph - N/A   Overcast
7:23 PM 62.6 °F 57.2 °F 82% 29.94 in 2.0 mi ENE 9.2 mph - N/A   Overcast
7:34 PM 60.8 °F 57.2 °F 88% 29.94 in 0.5 mi East 11.5 mph - N/A Fog Fog
7:55 PM 61.0 °F 57.0 °F 87% 29.95 in 0.5 mi East 13.8 mph 17.3 mph N/A Fog Fog
8:31 PM 60.8 °F 57.2 °F 88% 29.95 in 0.2 mi East 11.5 mph - N/A Fog Fog
8:55 PM 59.0 °F 55.9 °F 90% 29.98 in 0.2 mi East 8.1 mph - N/A Fog Fog
9:41 PM 57.2 °F 55.4 °F 94% 29.95 in 0.5 mi ENE 12.7 mph - N/A Fog Fog
9:55 PM 57.9 °F 55.0 °F 90% 29.97 in 0.5 mi ENE 11.5 mph - N/A Fog Fog
10:55 PM 55.0 °F 52.0 °F 89% 30.00 in 0.5 mi East 16.1 mph - N/A Fog Fog
11:29 PM 53.6 °F 51.8 °F 94% 29.98 in 0.2 mi East 15.0 mph 21.9 mph N/A Fog Fog
11:48 PM 53.6 °F 51.8 °F 94% 29.96 in 0.2 mi ENE 15.0 mph 20.7 mph N/A Fog Fog
11:55 PM 54.0 °F 51.1 °F 90% 29.98 in 0.5 mi ENE 16.1 mph - N/A Fog Fog